AMX1005 MMVA-MMUN

Flight info

Callsign AMX1005
Flight time 1h 10m
Altitude 35000
Route MMVA/26 VSA3B VSA DCT XUDUN XUDU1A MMUN/KAROR I12RX
Aircraft B738/M-SDRGWV/N

Departure

Time 2026-04-26 18:40
Airport Carlos Rovirosa Pérez International Airport (MMVA)

Arrival

Time 2026-04-26 19:51
Airport Cancún International Airport (MMUN)
Time Latitude Longitude Altitude Speed Heading
2026-04-26 18:27 17.99366 -92.81853 50 ft 0 kts 177°
2026-04-26 18:32 17.99380 -92.81856 50 ft 2 kts 156°
2026-04-26 18:32 17.99394 -92.81863 50 ft 2 kts 141°
2026-04-26 18:33 17.99404 -92.81876 49 ft 2 kts 122°
2026-04-26 18:33 17.99408 -92.81884 49 ft 2 kts 111°
2026-04-26 18:33 17.99412 -92.81899 49 ft 2 kts 94°
2026-04-26 18:33 17.99412 -92.81914 49 ft 0 kts 83°
2026-04-26 18:34 17.99411 -92.81916 49 ft 0 kts 84°
2026-04-26 18:36 17.99413 -92.81896 49 ft 7 kts 84°
2026-04-26 18:36 17.99430 -92.81852 50 ft 7 kts 34°
2026-04-26 18:36 17.99490 -92.81825 50 ft 11 kts 32°
2026-04-26 18:37 17.99555 -92.81750 51 ft 16 kts 56°
2026-04-26 18:37 17.99628 -92.81633 51 ft 21 kts 55°
2026-04-26 18:37 17.99702 -92.81485 53 ft 23 kts 80°
2026-04-26 18:37 17.99717 -92.81304 57 ft 25 kts 86°
2026-04-26 18:38 17.99727 -92.81117 60 ft 25 kts 88°
2026-04-26 18:38 17.99740 -92.80919 59 ft 27 kts 86°
2026-04-26 18:38 17.99719 -92.80761 58 ft 18 kts 126°
2026-04-26 18:38 17.99739 -92.80698 57 ft 9 kts 323°
2026-04-26 18:39 17.99745 -92.80716 57 ft 0 kts 266°
2026-04-26 18:40 17.99745 -92.80718 57 ft 6 kts 266°
2026-04-26 18:40 17.99719 -92.81199 59 ft 119 kts 266°
2026-04-26 18:40 17.99639 -92.82381 264 ft 189 kts 264°
2026-04-26 18:40 17.99526 -92.83594 1792 ft 166 kts 264°
2026-04-26 18:41 17.99437 -92.84816 2605 ft 180 kts 264°
2026-04-26 18:41 17.99321 -92.86172 3408 ft 197 kts 263°
2026-04-26 18:41 17.99189 -92.87653 4244 ft 214 kts 263°
2026-04-26 18:41 17.99045 -92.89287 5089 ft 235 kts 263°
2026-04-26 18:42 17.98895 -92.91016 6011 ft 250 kts 264°
2026-04-26 18:42 17.98732 -92.92898 6906 ft 268 kts 264°
2026-04-26 18:42 17.98569 -92.94905 7796 ft 284 kts 268°
2026-04-26 18:42 17.98777 -92.97004 8654 ft 299 kts 288°
2026-04-26 18:43 17.99661 -92.98984 9762 ft 302 kts 306°
2026-04-26 18:43 18.00962 -93.00687 10904 ft 304 kts 316°
2026-04-26 18:43 18.02621 -93.02125 11803 ft 313 kts 333°
2026-04-26 18:43 18.04688 -93.02932 12676 ft 322 kts 351°
2026-04-26 18:44 18.06962 -93.03052 13491 ft 334 kts
2026-04-26 18:44 18.09298 -93.02587 14194 ft 350 kts 18°
2026-04-26 18:44 18.11503 -93.01334 14827 ft 368 kts 38°
2026-04-26 18:44 18.13169 -92.99267 15696 ft 381 kts 57°
2026-04-26 18:45 18.14154 -92.96637 16597 ft 393 kts 74°
2026-04-26 18:45 18.14386 -92.93724 17442 ft 406 kts 92°
2026-04-26 18:45 18.13618 -92.90830 18298 ft 420 kts 113°
2026-04-26 18:45 18.11864 -92.88345 19133 ft 433 kts 134°
2026-04-26 18:46 18.09442 -92.86351 19947 ft 442 kts 144°
2026-04-26 18:46 18.06818 -92.84647 20746 ft 448 kts 146°
2026-04-26 18:46 18.04267 -92.82719 21537 ft 452 kts 137°
2026-04-26 18:46 18.02013 -92.80370 22313 ft 454 kts 128°
2026-04-26 18:47 18.00134 -92.77657 23002 ft 458 kts 118°
2026-04-26 18:47 17.98694 -92.74657 23714 ft 461 kts 109°
2026-04-26 18:47 17.97719 -92.71420 24393 ft 464 kts 100°
2026-04-26 18:47 17.97250 -92.68089 25068 ft 466 kts 91°
2026-04-26 18:48 17.97285 -92.64648 25679 ft 468 kts 81°
2026-04-26 18:48 17.97836 -92.61299 26356 ft 469 kts 72°
2026-04-26 18:48 17.98896 -92.58015 26958 ft 471 kts 63°
2026-04-26 18:48 18.00421 -92.54982 27599 ft 471 kts 54°
2026-04-26 18:49 18.02400 -92.52206 28225 ft 471 kts 45°
2026-04-26 18:49 18.04737 -92.49809 28757 ft 472 kts 36°
2026-04-26 18:49 18.07420 -92.47794 29370 ft 472 kts 28°
2026-04-26 18:49 18.10281 -92.46029 30207 ft 469 kts 26°
2026-04-26 18:50 18.13055 -92.44332 31297 ft 461 kts 27°
2026-04-26 18:50 18.15751 -92.42494 32263 ft 458 kts 30°
2026-04-26 18:50 18.18290 -92.40482 33037 ft 459 kts 34°
2026-04-26 18:50 18.20735 -92.38244 33842 ft 460 kts 38°
2026-04-26 18:51 18.23029 -92.35896 34502 ft 462 kts 40°
2026-04-26 18:51 18.25277 -92.33419 34748 ft 466 kts 42°
2026-04-26 18:51 18.29612 -92.28313 34754 ft 460 kts 44°
2026-04-26 18:52 18.33819 -92.23183 34756 ft 463 kts 44°
2026-04-26 18:52 18.38018 -92.18034 34756 ft 463 kts 44°
2026-04-26 18:53 18.42228 -92.12876 34761 ft 464 kts 44°
2026-04-26 18:53 18.46449 -92.07713 34756 ft 463 kts 44°
2026-04-26 18:54 18.50671 -92.02549 34774 ft 462 kts 44°
2026-04-26 18:54 18.54894 -91.97388 34776 ft 463 kts 44°
2026-04-26 18:55 18.59113 -91.92227 34782 ft 462 kts 44°
2026-04-26 18:55 18.63293 -91.87112 34787 ft 462 kts 44°
2026-04-26 18:56 18.67527 -91.81924 34791 ft 462 kts 44°
2026-04-26 18:56 18.71736 -91.76765 34788 ft 463 kts 44°
2026-04-26 18:57 18.75255 -91.72447 34786 ft 464 kts 44°
2026-04-26 18:57 18.80154 -91.66431 34779 ft 462 kts 44°
2026-04-26 18:58 18.84379 -91.61237 34775 ft 463 kts 44°
2026-04-26 18:58 18.88613 -91.56029 34777 ft 464 kts 44°
2026-04-26 18:59 18.92835 -91.50830 34768 ft 463 kts 44°
2026-04-26 18:59 18.97031 -91.45660 34770 ft 463 kts 44°
2026-04-26 19:00 19.01259 -91.40447 34773 ft 464 kts 44°
2026-04-26 19:00 19.05485 -91.35230 34770 ft 464 kts 44°
2026-04-26 19:01 19.09694 -91.30029 34768 ft 465 kts 44°
2026-04-26 19:01 19.13918 -91.24807 34771 ft 464 kts 44°
2026-04-26 19:02 19.18118 -91.19607 34772 ft 464 kts 44°
2026-04-26 19:02 19.21627 -91.15263 34770 ft 465 kts 45°
2026-04-26 19:03 19.26533 -91.09182 34771 ft 464 kts 45°
2026-04-26 19:03 19.30718 -91.03990 34771 ft 466 kts 44°
2026-04-26 19:04 19.34930 -90.98759 34772 ft 465 kts 44°
2026-04-26 19:04 19.39093 -90.93583 34776 ft 464 kts 44°
2026-04-26 19:05 19.45399 -90.85737 34777 ft 464 kts 44°
2026-04-26 19:06 19.49581 -90.80529 34781 ft 465 kts 45°
2026-04-26 19:06 19.53752 -90.75330 34778 ft 464 kts 45°
2026-04-26 19:07 19.57937 -90.70107 34791 ft 464 kts 45°
2026-04-26 19:07 19.62127 -90.64875 34795 ft 464 kts 45°
2026-04-26 19:08 19.66329 -90.59623 34799 ft 464 kts 45°
2026-04-26 19:08 19.70512 -90.54391 34804 ft 465 kts 45°
2026-04-26 19:09 19.74695 -90.49152 34808 ft 465 kts 45°
2026-04-26 19:09 19.78876 -90.43913 34810 ft 464 kts 45°
2026-04-26 19:10 19.83088 -90.38628 34812 ft 464 kts 45°
2026-04-26 19:10 19.87247 -90.33406 34808 ft 465 kts 45°
2026-04-26 19:11 19.91453 -90.28123 34808 ft 465 kts 45°
2026-04-26 19:11 19.95640 -90.22858 34808 ft 465 kts 45°
2026-04-26 19:12 19.99828 -90.17584 34806 ft 464 kts 45°
2026-04-26 19:12 20.03977 -90.12356 34803 ft 464 kts 45°
2026-04-26 19:13 20.08161 -90.07079 34803 ft 463 kts 45°
2026-04-26 19:13 20.12305 -90.01849 34802 ft 464 kts 45°
2026-04-26 19:14 20.16480 -89.96575 34802 ft 465 kts 45°
2026-04-26 19:14 20.20647 -89.91306 34807 ft 465 kts 45°
2026-04-26 19:15 20.24813 -89.86033 34804 ft 465 kts 45°
2026-04-26 19:15 20.28978 -89.80756 34800 ft 465 kts 46°
2026-04-26 19:16 20.33132 -89.75490 34798 ft 465 kts 45°
2026-04-26 19:16 20.37283 -89.70222 34802 ft 466 kts 45°
2026-04-26 19:17 20.41437 -89.64942 34803 ft 465 kts 46°
2026-04-26 19:17 20.45597 -89.59655 34806 ft 466 kts 46°
2026-04-26 19:18 20.49757 -89.54360 34802 ft 465 kts 46°
2026-04-26 19:18 20.53923 -89.49052 34802 ft 465 kts 46°
2026-04-26 19:19 20.58075 -89.43760 34801 ft 466 kts 46°
2026-04-26 19:19 20.62232 -89.38454 34801 ft 466 kts 46°
2026-04-26 19:20 20.66393 -89.33138 34803 ft 465 kts 46°
2026-04-26 19:20 20.70538 -89.27837 34808 ft 466 kts 46°
2026-04-26 19:21 20.74705 -89.22505 34813 ft 466 kts 46°
2026-04-26 19:21 20.78842 -89.17207 34811 ft 466 kts 46°
2026-04-26 19:22 20.83016 -89.11855 34807 ft 467 kts 46°
2026-04-26 19:22 20.87155 -89.06542 34802 ft 467 kts 46°
2026-04-26 19:23 20.91298 -89.01219 34804 ft 466 kts 46°
2026-04-26 19:23 20.95458 -88.95870 34801 ft 467 kts 46°
2026-04-26 19:24 20.99576 -88.90570 34504 ft 464 kts 46°
2026-04-26 19:24 21.01641 -88.87907 33996 ft 457 kts 46°
2026-04-26 19:24 21.05674 -88.82706 32662 ft 455 kts 46°
2026-04-26 19:25 21.07686 -88.80111 31932 ft 456 kts 46°
2026-04-26 19:25 21.09031 -88.78378 31418 ft 457 kts 47°
2026-04-26 19:25 21.11749 -88.74872 30292 ft 460 kts 47°
2026-04-26 19:25 21.13784 -88.72246 29419 ft 462 kts 47°
2026-04-26 19:26 21.15837 -88.69595 28448 ft 464 kts 47°
2026-04-26 19:26 21.17897 -88.66933 27434 ft 462 kts 47°
2026-04-26 19:26 21.19909 -88.64328 26445 ft 455 kts 47°
2026-04-26 19:26 21.21903 -88.61740 25429 ft 442 kts 47°
2026-04-26 19:27 21.23829 -88.59238 24435 ft 429 kts 47°
2026-04-26 19:27 21.25674 -88.56838 23634 ft 411 kts 47°
2026-04-26 19:27 21.27455 -88.54519 23055 ft 395 kts 46°
2026-04-26 19:27 21.29192 -88.52261 22434 ft 390 kts 46°
2026-04-26 19:28 21.30902 -88.50043 21929 ft 382 kts 46°
2026-04-26 19:28 21.32552 -88.47853 21546 ft 381 kts 49°
2026-04-26 19:28 21.34009 -88.45465 21262 ft 385 kts 58°
2026-04-26 19:28 21.35030 -88.42791 20978 ft 391 kts 69°
2026-04-26 19:29 21.35532 -88.39978 20828 ft 379 kts 80°
2026-04-26 19:29 21.35639 -88.37189 20810 ft 371 kts 86°
2026-04-26 19:29 21.35470 -88.34392 20322 ft 379 kts 94°
2026-04-26 19:29 21.35016 -88.31621 19759 ft 379 kts 98°
2026-04-26 19:30 21.34423 -88.28873 19226 ft 377 kts 100°
2026-04-26 19:30 21.33798 -88.26188 18685 ft 375 kts 100°
2026-04-26 19:30 21.33160 -88.23483 18087 ft 373 kts 101°
2026-04-26 19:30 21.32740 -88.21685 17766 ft 369 kts 100°
2026-04-26 19:31 21.31934 -88.18140 17080 ft 365 kts 100°
2026-04-26 19:31 21.31359 -88.15529 16556 ft 363 kts 99°
2026-04-26 19:31 21.30792 -88.12894 16019 ft 361 kts 99°
2026-04-26 19:31 21.30234 -88.10273 15449 ft 360 kts 99°
2026-04-26 19:32 21.29686 -88.07690 14939 ft 357 kts 99°
2026-04-26 19:32 21.29133 -88.05119 14552 ft 349 kts 99°
2026-04-26 19:32 21.28584 -88.02612 14062 ft 347 kts 99°
2026-04-26 19:32 21.28032 -88.00107 13535 ft 346 kts 99°
2026-04-26 19:33 21.27482 -87.97611 13058 ft 343 kts 99°
2026-04-26 19:33 21.26933 -87.95123 12570 ft 341 kts 100°
2026-04-26 19:33 21.26388 -87.92654 12077 ft 338 kts 100°
2026-04-26 19:33 21.25856 -87.90235 11599 ft 335 kts 101°
2026-04-26 19:34 21.25320 -87.87801 11134 ft 333 kts 101°
2026-04-26 19:34 21.24794 -87.85413 10682 ft 330 kts 101°
2026-04-26 19:34 21.24270 -87.83037 10199 ft 328 kts 101°
2026-04-26 19:34 21.23747 -87.80668 9741 ft 325 kts 101°
2026-04-26 19:35 21.23236 -87.78363 9577 ft 310 kts 101°
2026-04-26 19:35 21.22747 -87.76156 9244 ft 300 kts 102°
2026-04-26 19:35 21.22273 -87.74011 8774 ft 296 kts 102°
2026-04-26 19:35 21.21948 -87.71867 8356 ft 286 kts 93°
2026-04-26 19:36 21.21893 -87.69760 7948 ft 280 kts 88°
2026-04-26 19:36 21.21927 -87.68375 7908 ft 281 kts 87°
2026-04-26 19:36 21.22021 -87.65574 7726 ft 286 kts 87°
2026-04-26 19:36 21.22073 -87.63457 7340 ft 282 kts 88°
2026-04-26 19:37 21.22107 -87.61375 6995 ft 277 kts 88°
2026-04-26 19:37 21.22131 -87.59338 6647 ft 268 kts 89°
2026-04-26 19:37 21.22152 -87.57376 6314 ft 258 kts 89°
2026-04-26 19:37 21.22173 -87.55486 5993 ft 248 kts 89°
2026-04-26 19:38 21.22195 -87.53676 5685 ft 242 kts 89°
2026-04-26 19:38 21.22216 -87.51878 5380 ft 240 kts 89°
2026-04-26 19:38 21.22237 -87.50088 5087 ft 238 kts 89°
2026-04-26 19:38 21.22257 -87.48330 4773 ft 236 kts 90°
2026-04-26 19:39 21.22277 -87.46587 4484 ft 236 kts 90°
2026-04-26 19:39 21.22297 -87.44830 4182 ft 235 kts 90°
2026-04-26 19:39 21.22317 -87.43087 3886 ft 234 kts 90°
2026-04-26 19:39 21.22336 -87.41339 3607 ft 233 kts 90°
2026-04-26 19:40 21.22355 -87.39621 3312 ft 232 kts 90°
2026-04-26 19:40 21.22374 -87.37905 3088 ft 226 kts 90°
2026-04-26 19:40 21.22393 -87.36267 3000 ft 209 kts 90°
2026-04-26 19:40 21.22405 -87.34789 2932 ft 193 kts 92°
2026-04-26 19:41 21.22350 -87.33406 2922 ft 177 kts 95°
2026-04-26 19:41 21.22258 -87.32100 2926 ft 175 kts 96°
2026-04-26 19:41 21.22168 -87.30795 2923 ft 175 kts 96°
2026-04-26 19:41 21.22113 -87.29938 2923 ft 175 kts 95°
2026-04-26 19:42 21.22004 -87.28194 2917 ft 175 kts 95°
2026-04-26 19:42 21.21924 -87.26908 2920 ft 175 kts 95°
2026-04-26 19:42 21.21834 -87.25497 2931 ft 204 kts 95°
2026-04-26 19:42 21.21734 -87.23930 2886 ft 213 kts 95°
2026-04-26 19:43 21.21636 -87.22358 2687 ft 213 kts 95°
2026-04-26 19:43 21.21538 -87.20784 2583 ft 210 kts 95°
2026-04-26 19:43 21.21438 -87.19198 2453 ft 214 kts 95°
2026-04-26 19:43 21.21337 -87.17612 2181 ft 209 kts 95°
2026-04-26 19:44 21.21239 -87.16077 1977 ft 208 kts 95°
2026-04-26 19:44 21.21087 -87.14529 1936 ft 207 kts 101°
2026-04-26 19:44 21.20714 -87.13032 1944 ft 208 kts 111°
2026-04-26 19:44 21.20112 -87.11654 2042 ft 207 kts 119°
2026-04-26 19:45 21.19356 -87.10345 2227 ft 207 kts 124°
2026-04-26 19:45 21.18541 -87.09051 2435 ft 210 kts 124°
2026-04-26 19:45 21.17713 -87.07742 2647 ft 211 kts 124°
2026-04-26 19:45 21.16894 -87.06433 2856 ft 213 kts 124°
2026-04-26 19:46 21.16083 -87.05132 2846 ft 204 kts 124°
2026-04-26 19:46 21.15347 -87.03950 2834 ft 177 kts 124°
2026-04-26 19:46 21.14701 -87.02909 2835 ft 160 kts 124°
2026-04-26 19:46 21.14076 -87.01932 2843 ft 157 kts 128°
2026-04-26 19:47 21.13437 -87.00978 2778 ft 159 kts 120°
2026-04-26 19:47 21.13076 -87.00279 2635 ft 160 kts 120°
2026-04-26 19:47 21.12297 -86.98975 2349 ft 155 kts 124°
2026-04-26 19:47 21.11697 -86.98021 2149 ft 154 kts 123°
2026-04-26 19:48 21.11095 -86.97054 1948 ft 154 kts 123°
2026-04-26 19:48 21.10500 -86.96109 1746 ft 151 kts 124°
2026-04-26 19:48 21.09905 -86.95168 1548 ft 151 kts 124°
2026-04-26 19:48 21.09349 -86.94283 1387 ft 137 kts 124°
2026-04-26 19:49 21.08828 -86.93451 1161 ft 129 kts 125°
2026-04-26 19:49 21.08336 -86.92673 1026 ft 125 kts 125°
2026-04-26 19:49 21.07841 -86.91882 871 ft 130 kts 125°
2026-04-26 19:49 21.07327 -86.91071 698 ft 134 kts 126°
2026-04-26 19:50 21.06796 -86.90224 526 ft 138 kts 125°
2026-04-26 19:50 21.06254 -86.89362 353 ft 141 kts 126°
2026-04-26 19:50 21.05704 -86.88480 183 ft 142 kts 125°
2026-04-26 19:50 21.05169 -86.87633 52 ft 129 kts 126°
2026-04-26 19:51 21.04756 -86.86995 40 ft 67 kts 125°
2026-04-26 19:51 21.04579 -86.86712 40 ft 35 kts 123°
2026-04-26 19:51 21.04440 -86.86500 37 ft 35 kts 131°
2026-04-26 19:51 21.04243 -86.86357 39 ft 32 kts 154°
2026-04-26 19:52 21.04059 -86.86231 41 ft 28 kts 166°
2026-04-26 19:52 21.03886 -86.86320 42 ft 30 kts 211°
2026-04-26 19:52 21.03700 -86.86450 42 ft 30 kts 216°
2026-04-26 19:52 21.03627 -86.86506 42 ft 1 kts 215°
2026-04-26 19:53 21.03553 -86.86559 42 ft 21 kts 212°
2026-04-26 19:53 21.03408 -86.86659 38 ft 25 kts 213°
2026-04-26 19:53 21.03288 -86.86777 34 ft 12 kts 291°
2026-04-26 19:53 21.03303 -86.86817 33 ft 11 kts 294°
2026-04-26 19:54 21.03351 -86.86900 33 ft 14 kts 303°
2026-04-26 19:54 21.03416 -86.87004 32 ft 19 kts 304°
2026-04-26 19:54 21.03504 -86.87144 31 ft 25 kts 303°
2026-04-26 19:54 21.03615 -86.87322 27 ft 32 kts 304°
2026-04-26 19:55 21.03745 -86.87531 24 ft 34 kts 301°
2026-04-26 19:55 21.03881 -86.87744 24 ft 34 kts 303°
2026-04-26 19:55 21.04016 -86.87965 24 ft 35 kts 302°
2026-04-26 19:55 21.04151 -86.88179 27 ft 34 kts 303°
2026-04-26 19:56 21.04278 -86.88382 31 ft 30 kts 302°
2026-04-26 19:56 21.04391 -86.88560 34 ft 22 kts 305°
2026-04-26 19:56 21.04496 -86.88605 36 ft 18 kts 34°
2026-04-26 19:56 21.04583 -86.88515 38 ft 17 kts 77°
2026-04-26 19:57 21.04595 -86.88422 38 ft 3 kts 82°
2026-04-26 19:57 21.04598 -86.88394 39 ft 2 kts 83°
2026-04-26 19:57 21.04599 -86.88387 39 ft 0 kts 83°